Regional Weather Roundup
Issued by NWS Little Rock, AR

Home | Current Version | Previous Version | Text Only | Print | Product List | Glossary On
Versions: 1 2 3 4 5 6 7 8 9 10 11 12 13 14 15 16 17 18 19 20 21 22 23 24 25 26 27 28 29 30 31 32 33 34 35 36 37 38 39 40 41 42 43 44 45 46 47 48 49 50
000
ASUS44 KLZK 301105
RWRLZK

WEATHER ROUNDUP FOR ARKANSAS
NATIONAL WEATHER SERVICE LITTLE ROCK AR
600 AM CDT SAT MAY 30 2015

NOTE: "FAIR" INDICATES FEW OR NO CLOUDS BELOW 12,000 FEET WITH NO
SIGNIFICANT WEATHER AND/OR OBSTRUCTIONS TO VISIBILITY.

ARZ001-003-010-029-301200-
NORTHWEST ARKANSAS

CITY           SKY/WX    TMP DP  RH WIND       PRES   REMARKS
FAYETTEVILLE   CLOUDY    64  63  96 NW8       29.98R
FORT SMITH     CLOUDY    67  65  93 W10       29.98R
HARRISON       CLOUDY    65  64  97 N3        29.96R
BENTONVILLE    CLOUDY    64  61  88 NW5       29.98R
ROGERS         CLOUDY    64  63  96 NW7       29.99R
SILOAM SPGS    CLOUDY    63  55  77 NW6       30.00R
HIGHFILL       CLOUDY    64  63  96 N7        29.98R
SPRINGDALE     LGT RAIN  64  64 100 NW7       30.00
$$

ARZ004-005-016-301200-
NORTH CENTRAL ARKANSAS

CITY           SKY/WX    TMP DP  RH WIND       PRES   REMARKS
BATESVILLE     CLOUDY    70  66  88 S6        29.90R
FLIPPIN        CLOUDY    66  64  94 N8        29.92R
MTN HOME       RAIN      66  65  96 VRB3      29.93R FOG
$$

ARZ040-041-301200-
WEST CENTRAL ARKANSAS

CITY           SKY/WX    TMP DP  RH WIND       PRES   REMARKS
MENA           CLOUDY    68  66  94 W3        30.00S
MOUNT IDA      CLOUDY    68  66  93 W3        29.97R
$$

ARZ009-017-025-026-028-301200-
NORTHEAST ARKANSAS

CITY           SKY/WX    TMP DP  RH WIND       PRES   REMARKS
CORNING          N/A     68  68 100 E3        29.94S
JONESBORO      MOCLDY    71  69  93 S10       29.93S
NEWPORT        CLOUDY    70  70 100 S15       29.93R
WALNUT RIDGE   CLOUDY    70  66  88 SE7       29.93S
BLYTHEVILLE    PTCLDY    71  69  93 S12       29.96S
$$

ARZ022-023-033-042-044-301200-
CENTRAL ARKANSAS

CITY           SKY/WX    TMP DP  RH WIND       PRES   REMARKS
LITTLE ROCK    LGT RAIN  70  66  87 SW8       29.94R
N LITTLE ROCK    N/A     68  68 100 SW6       29.94R
JACKSONVILLE   DRIZZLE   70  68  94 S10       29.93R
SEARCY         CLOUDY    69  68  96 S7        29.93R
HOT SPRINGS    CLOUDY    68  67  96 W7        29.97R
RUSSELLVILLE   LGT RAIN  68  67  96 SW3       29.93R
CLINTON        LGT RAIN  66  66 100 CALM      29.92S
$$

ARZ036-301200-
EAST ARKANSAS

CITY           SKY/WX    TMP DP  RH WIND       PRES   REMARKS
WEST MEMPHIS   MOCLDY    70  67  90 S15       29.96S
$$

ARZ050-053-066-070-073-301200-
SOUTHWEST ARKANSAS

CITY           SKY/WX    TMP DP  RH WIND       PRES   REMARKS
ARKADELPHIA    FAIR      70  70 100 SW7       29.98R
CAMDEN         PTCLDY    70  66  88 CALM      29.99R
TEXARKANA      CLEAR     68  67  96 CALM      29.99R
EL DORADO      PTCLDY    71  69  93 SW5       30.01R
DE QUEEN       CLOUDY    66  66 100 W5        29.98R
$$

ARZ056-057-069-301200-
SOUTHEAST ARKANSAS

CITY           SKY/WX    TMP DP  RH WIND       PRES   REMARKS
PINE BLUFF     CLOUDY    70  69  97 SW9       29.97R
STUTTGART      MOCLDY    70  66  88 S14       29.96R
MONTICELLO     CLOUDY    72  71  97 SW9       29.99R

$$




USA.gov is the U.S. government's official web portal to all federal, state and local government web resources and services.